This is the latest recevied weather packets stored in our database for station/object KB1JDX. If no packets are shown the sender has not sent any weather packets the latest 10 day(s).
| Time | Temp. | Humidity | Pressure | Rain* | Wind** | Luminosity | Snow |
|---|---|---|---|---|---|---|---|
| 1777782032 | 7.22° C | 42% | 1010.4 hPa | 0 mm | 0 m/s | - | - |
| 1777781966 | 7.22° C | 43% | 1010.4 hPa | 0 mm | 0 m/s | - | - |
| 1777780832 | 7.22° C | 29% | 1010.3 hPa | 0 mm | 0 m/s | - | - |
| 1777779632 | 7.22° C | 25% | 1010.7 hPa | 0 mm | 0 m/s | - | - |
| 1777778433 | 7.78° C | 14% | 1010.5 hPa | 0 mm | 0 m/s | - | - |
| 1777778366 | 7.78° C | 13% | 1010.5 hPa | 0 mm | 0 m/s | - | - |
| 1777777232 | 8.89° C | 2% | 1010.5 hPa | 0 mm | 0 m/s | - | - |
| 1777776032 | 8.89° C | 1% | 1010.7 hPa | 0 mm | 0 m/s | - | - |
| 1777774832 | 8.89° C | 3% | 1010.7 hPa | 0 mm | 0 m/s | - | - |
| 1777774765 | 8.89° C | 3% | 1010.7 hPa | 0 mm | 0 m/s | - | - |
| 1777773632 | 8.89° C | 5% | 1010.7 hPa | 0 mm | 0 m/s | - | - |
| 1777772432 | 8.89° C | 7% | 1010.3 hPa | 0 mm | 0 m/s | - | - |
| 1777771232 | 9.44° C | 7% | 1010.5 hPa | 0 mm | 0 m/s | - | - |
| 1777771166 | 9.44° C | 7% | 1010.5 hPa | 0 mm | 0 m/s | - | - |
| 1777770032 | 9.44° C | 9% | 1010.3 hPa | 0 mm | 0 m/s | - | - |
| 1777768832 | 10° C | 10% | 1010.2 hPa | 0 mm | 0 m/s | - | - |
| 1777767632 | 10° C | 12% | 1010 hPa | 0 mm | 0 m/s | - | - |
| 1777767566 | 10° C | 12% | 1010.1 hPa | 0 mm | 0 m/s | - | - |
| 1777766433 | 10° C | 13% | 1010.1 hPa | 0 mm | 0 m/s | - | - |
| 1777765231 | 10.56° C | 14% | 1010.1 hPa | 0 mm | 0 m/s | - | - |
| 1777764032 | 10.56° C | 15% | 1010 hPa | 0 mm | 0 m/s | - | - |
| 1777763966 | 10.56° C | 16% | 1010 hPa | 0 mm | 0 m/s | - | - |
| 1777762832 | 10.56° C | 15% | 1009.9 hPa | 0.25 mm | 0 m/s | - | - |
| 1777761632 | 10.56° C | 17% | 1009.9 hPa | 0.25 mm | 0 m/s | - | - |
| 1777760432 | 10.56° C | 16% | 1009.9 hPa | 0.25 mm | 0 m/s | - | - |
* Rain latest hour (hover to see other rain measurements)
** Current wind speed in m/s (hover to see current wind gust speed)